[[{"header":{"parameterUnit":"m.s-1","parameterCategory":2,"la1":30.2991,"la2":30.254,"lo1":-89.0895,"lo2":-89.0444,"dy":0.0017,"dx":0.0017,"nx":28,"ny":28,"refTime":"2024-05-24T21:00:00:Z","depth":"0","parameterNumber":2,"parameterNumberName":"U-component_of_CURRENTS"},"data":[0,0,0,0,0,0,0,0,0,0,0,0,0,0,0,0,0,0,0,0,0,0,0,0,0,0,0,0,0,0,0,0,0,0,0,0,0,0,0,0,0,0,0,0,0,0,0,0,0,0,0,0,0,0,0,0,0,0,0.3593,0.3594,0,0.3648,0.3649,0.3649,0.3625,0.3624,0.3623,0.3622,0.3681,0.3684,0.3686,0,0,0,0,0,0,0,0,0,0,0,0,0,0.352,0.3521,0.3593,0.3594,0.3594,0.3648,0.3649,0.3649,0.3626,0.3624,0.3623,0.3621,0.368,0.3683,0.3687,0,0,0,0,0,0,0,0,0,0,0,0,0,0.356,0.3522,0.3593,0.359,0.359,0.3648,0.3649,0.365,0.3626,0.3624,0.3622,0.362,0.3679,0.3683,0.3687,0.375,0,0,0.3699,0.3701,0,0,0,0,0,0,0,0,0.3558,0.3563,0.3589,0.359,0.3591,0.3629,0.3645,0.3684,0.3626,0.3611,0.3622,0.362,0.3666,0.3671,0.3684,0.3752,0.3755,0.37,0.3702,0.3704,0.3705,0,0,0,0,0,0,0,0.3555,0.3561,0.3614,0.3591,0.3591,0.3604,0.3607,0.3652,0.3648,0.3612,0.3611,0.362,0.3666,0.368,0.3685,0.3756,0.37,0.3703,0.3706,0.3708,0.3977,0.3981,0,0,0,0,0,0,0.355,0.3558,0.3612,0.3615,0.3571,0.3607,0.361,0.3618,0.3647,0.365,0.3621,0.3618,0.3674,0.368,0.3687,0.3851,0.3704,0.3708,0.371,0.3972,0.3978,0.3983,0,0,0,0,0,0,0.3548,0.3554,0.361,0.3589,0.3597,0.361,0.3619,0.362,0.3645,0.3654,0.3656,0.3645,0.3673,0.3681,0.3759,0.3849,0.371,0.3714,0.3967,0.3974,0.398,0.4123,0,0,0,0,0,0,0.3546,0.3553,0.356,0.3588,0.3598,0.3674,0.3621,0.3622,0.3652,0.3649,0.3676,0.3678,0.3672,0.3753,0.3763,0.3853,0.3717,0.3961,0.397,0.3978,0.4112,0.4134,0.4152,0,0,0,0,0,0.3543,0.3569,0.356,0.3567,0.3605,0.3677,0.3685,0.3686,0.3656,0.3695,0.371,0.3678,0.3816,0.376,0.3771,0.3864,0.3956,0.3967,0.3978,0.4103,0.413,0.4152,0,0,0,0,0,0,0.3541,0.357,0.356,0.3591,0.3641,0.3674,0.3706,0.3703,0.3745,0.374,0.3731,0.3738,0.3846,0.384,0.3778,0.3971,0.3886,0.3899,0.3978,0.4003,0.4023,0.402,0.372,0,0,0,0,0,0.3543,0.3569,0.3607,0.3636,0.3664,0.3687,0.3713,0.3722,0.3759,0.3774,0.3795,0.3832,0.3901,0.3934,0.3984,0.4084,0.4093,0.4156,0.4176,0.4193,0.4202,0.4296,0.4324,0.4018,0.4018,0.4017,0,0,0.3546,0.3569,0.3579,0.3638,0.367,0.3746,0.3699,0.3761,0.3832,0.3778,0.388,0.3904,0.3944,0.406,0.4109,0.4063,0.4293,0.4206,0.422,0.4219,0.431,0.4339,0.4365,0.4025,0.4024,0.4022,0,0,0.3596,0.3596,0.3647,0.3699,0.3764,0.3795,0.382,0.3877,0.391,0.4005,0.4001,0.4077,0.4159,0.4221,0.4257,0.4423,0.4397,0.4444,0.4544,0.4636,0.4661,0.4683,0.4757,0.4785,0.4453,0.4453,0.4453,0,0.3599,0.366,0.3679,0.3758,0.3802,0.3825,0.3906,0.397,0.4046,0.4085,0.4057,0.4213,0.4244,0.4399,0.446,0.447,0.4501,0.4442,0.466,0.4682,0.4702,0.4772,0.4801,0.4461,0.446,0.4459,0.4459,0,0.37,0.375,0.3795,0.3893,0.3956,0.4028,0.4112,0.4182,0.4208,0.4253,0.439,0.4442,0.4523,0.457,0.4565,0.4745,0.4716,0.4672,0.4589,0.4741,0.4806,0.4833,0.4473,0.447,0.4468,0.4466,0,0,0.3701,0.3832,0.3848,0.39,0.4022,0.4081,0.422,0.4336,0.4409,0.4499,0.4603,0.4743,0.474,0.4784,0.4808,0.4896,0.5079,0.4851,0.4852,0.4907,0.5281,0.5194,0.5214,0.5067,0.5072,0.5076,0.5276,0,0.3771,0.3907,0.3967,0.4104,0.4178,0.4245,0.4362,0.447,0.4548,0.4663,0.4748,0.4856,0.4837,0.488,0.4979,0.5053,0.5153,0.5029,0.5139,0.5143,0.5033,0.5244,0.4978,0.5127,0.5302,0.5306,0.5309,0,0.3853,0.3928,0.4054,0.4181,0.422,0.4303,0.445,0.4562,0.4729,0.4791,0.4912,0.4965,0.5146,0.508,0.5305,0.5223,0.5274,0.5315,0.5323,0.5205,0.5106,0.5002,0.5168,0.5061,0.535,0.5346,0.5344,0,0.3833,0.3989,0.4073,0.4121,0.4279,0.4337,0.4422,0.458,0.469,0.4871,0.4965,0.5137,0.5251,0.5353,0.5461,0.5393,0.5679,0.5585,0.5562,0.5554,0.533,0.5295,0.5384,0.5745,0.5745,0.5744,0.5743,0,0.3875,0.3948,0.4056,0.4105,0.4209,0.4315,0.444,0.4555,0.4734,0.488,0.502,0.5177,0.5326,0.5496,0.5542,0.5665,0.5756,0.5631,0.5624,0.5375,0.5343,0.5234,0.5179,0.5751,0.575,0.5748,0.5747,0,0.3857,0.3929,0.4032,0.4164,0.4202,0.4272,0.4446,0.4545,0.4718,0.4922,0.4994,0.5265,0.5478,0.5617,0.5808,0.578,0.5723,0.5891,0.5586,0.5539,0.5338,0.5299,0.5182,0.5036,0.5882,0.5881,0.588,0,0.3863,0.3908,0.404,0.4089,0.4144,0.4252,0.4333,0.4515,0.4635,0.4972,0.5078,0.5358,0.5532,0.5799,0.5806,0.5893,0.5738,0.5678,0.5493,0.5348,0.5302,0.5086,0.4955,0.5268,0.5263,0.5259,0.5255,0,0.3868,0.3903,0.3976,0.4067,0.4143,0.4243,0.4368,0.4461,0.4694,0.4875,0.5122,0.5283,0.554,0.5527,0.5655,0.5657,0.5381,0.5586,0.5522,0.4923,0.4608,0.4453,0.5119,0.5215,0.5219,0.5222,0.5224,0.5226,0.385,0.3891,0.3967,0.4046,0.4125,0.4202,0.4235,0.4392,0.4557,0.4764,0.5005,0.5124,0.523,0.5359,0.5345,0.5143,0.5141,0.4957,0.4957,0.478,0.4519,0.5103,0.5129,0.5132,0.5135,0.5137,0.514,0,0.3826,0.3876,0.3946,0.4023,0.4051,0.4126,0.4235,0.4232,0.4342,0.4543,0.4702,0.4755,0.4744,0.4783,0.4709,0.455,0.4297,0.4434,0.4072,0.4002,0.4609,0.4463,0.4238,0.4238,0.4238,0.4238,0.4239,0.4239,0.382,0.3859,0.389,0.3912,0.3953,0.3926,0.3941,0.3964,0.4032,0.4077,0.4084,0.4197,0.4393,0.4429,0.4261,0.4142,0.3856,0.3637,0.3707,0.415,0.4197,0.4242,0.4093,0.3795,0.3795,0.2862,0.2856,0.2851]},{"header":{"parameterUnit":"m.s-1","parameterCategory":2,"la1":30.2991,"la2":30.254,"lo1":-89.0895,"lo2":-89.0444,"dy":0.0017,"dx":0.0017,"nx":28,"ny":28,"refTime":"2024-05-24T21:00:00:Z","depth":"0","parameterNumber":3,"parameterNumberName":"V-component_of_CURRENTS"},"data":[0,0,0,0,0,0,0,0,0,0,0,0,0,0,0,0,0,0,0,0,0,0,0,0,0,0,0,0,0,0,0,0,0,0,0,0,0,0,0,0,0,0,0,0,0,0,0,0,0,0,0,0,0,0,0,0,0,0,0.012,0.0119,0,0.0058,0.0057,0.0056,0.0009,0.0008,0.0008,0.0008,-0.0078,-0.008,-0.0082,0,0,0,0,0,0,0,0,0,0,0,0,0,0.0154,0.0154,0.012,0.0119,0.0119,0.0058,0.0057,0.0056,0.0009,0.0008,0.0008,0.0008,-0.0078,-0.008,-0.0083,0,0,0,0,0,0,0,0,0,0,0,0,0,0.0119,0.0154,0.012,0.0089,0.0086,0.0058,0.0057,0.0056,0.0009,0.0008,0.0008,0.0007,-0.0077,-0.008,-0.0083,-0.0093,0,0,-0.0092,-0.0094,0,0,0,0,0,0,0,0,0.0121,0.0117,0.0094,0.0091,0.0087,0.0042,0.0038,0.0006,0.0009,0.0036,0.0008,0.0007,-0.0039,-0.0045,-0.0058,-0.0097,-0.0101,-0.0092,-0.0094,-0.0096,-0.0096,0,0,0,0,0,0,0,0.0124,0.012,0.0094,0.0093,0.0089,0.0064,0.0058,0.0031,0.0,0.0034,0.0031,0.0027,-0.0041,-0.0055,-0.006,-0.0102,-0.0092,-0.0095,-0.0097,-0.0098,-0.0137,-0.0136,0,0,0,0,0,0,0.0137,0.0122,0.0096,0.0092,0.0105,0.0064,0.0058,0.0056,0.0001,-0.0007,0.0027,0.0025,-0.0049,-0.0057,-0.0064,-0.0045,-0.0096,-0.0098,-0.01,-0.0138,-0.0137,-0.0136,0,0,0,0,0,0,0.0138,0.0136,0.0098,0.0107,0.01,0.0064,0.0062,0.0055,0.0047,-0.0004,-0.0013,0.0028,-0.005,-0.0059,-0.0075,-0.005,-0.01,-0.0103,-0.0139,-0.0137,-0.0136,-0.0029,0,0,0,0,0,0,0.014,0.0136,0.014,0.0108,0.0101,0.01,0.0062,0.0054,0.0046,0.0042,-0.0006,-0.0015,-0.0051,-0.007,-0.0078,-0.0055,-0.0105,-0.014,-0.0138,-0.0137,-0.0033,-0.0024,-0.0016,0,0,0,0,0,0.0141,0.0156,0.0141,0.0138,0.0107,0.0101,0.0096,0.0066,0.0046,0.0055,0.0019,-0.0013,-0.0067,-0.0072,-0.0082,-0.0058,-0.014,-0.0139,-0.0137,-0.0037,-0.0026,-0.0016,0,0,0,0,0,0,0.0172,0.0152,0.0135,0.0141,0.0129,0.0094,0.0097,0.0076,0.0053,0.0046,-0.0004,-0.0015,-0.0023,-0.0056,-0.006,-0.0067,-0.0109,-0.0109,-0.003,-0.002,-0.0011,0.0036,-0.0107,0,0,0,0,0,0.0181,0.0186,0.0162,0.0168,0.0166,0.0132,0.0125,0.0106,0.0081,0.0071,0.0036,0.0001,-0.0024,-0.0032,-0.0065,-0.0063,-0.0084,-0.0056,-0.0047,-0.0039,-0.0009,-0.0025,-0.0014,-0.013,-0.013,-0.013,0,0,0.0194,0.0184,0.0185,0.0175,0.016,0.0178,0.0127,0.0126,0.0144,0.0065,0.0075,0.0026,-0.002,-0.0021,-0.0027,-0.0042,-0.0018,-0.0037,-0.003,-0.0003,-0.0022,-0.001,-0.0,-0.0129,-0.0129,-0.0129,0,0,0.0233,0.0215,0.0238,0.0236,0.0225,0.0211,0.0217,0.019,0.0182,0.0179,0.0128,0.0103,0.0062,0.0043,0.0026,0.0065,0.0021,0.0047,0.0138,0.0122,0.0132,0.014,0.0129,0.0136,0.0059,0.006,0.006,0,0.0249,0.0277,0.0244,0.027,0.0285,0.0236,0.0275,0.0262,0.0234,0.024,0.0197,0.0152,0.0099,0.012,0.0126,0.0088,0.0072,0.0104,0.0136,0.0143,0.015,0.0137,0.0143,0.0065,0.0064,0.0064,0.0063,0,0.0312,0.0334,0.0351,0.0372,0.0381,0.0406,0.0391,0.0397,0.0372,0.0352,0.0353,0.0283,0.0266,0.0234,0.019,0.0221,0.0191,0.0142,0.0116,0.0169,0.0151,0.0155,0.0073,0.0071,0.0069,0.0068,0,0,0.0356,0.0391,0.0399,0.0438,0.0442,0.0466,0.0498,0.0522,0.0565,0.0508,0.0564,0.0487,0.0444,0.0424,0.0363,0.0344,0.0358,0.0276,0.0273,0.0279,0.0334,0.0291,0.0291,0.0315,0.0316,0.0317,0.0302,0,0.0423,0.0505,0.05,0.0589,0.0636,0.0617,0.0664,0.0672,0.0663,0.0699,0.0628,0.0642,0.052,0.0525,0.0484,0.0401,0.0376,0.0368,0.0271,0.0269,0.0234,0.0297,0.028,0.0262,0.0306,0.0306,0.0307,0,0.0497,0.0547,0.0646,0.0724,0.0745,0.0792,0.0873,0.0905,0.0922,0.0915,0.09,0.0844,0.0823,0.0707,0.0599,0.0602,0.0484,0.04,0.0397,0.033,0.0235,0.0214,0.0268,0.0045,0.0313,0.0313,0.0312,0,0.0575,0.0656,0.0748,0.0773,0.0844,0.0899,0.0942,0.0975,0.1038,0.1069,0.1122,0.1049,0.106,0.0903,0.0714,0.0666,0.0594,0.0498,0.0348,0.0343,0.0299,0.0288,0.014,0.0421,0.0421,0.0421,0.0421,0,0.066,0.0737,0.0799,0.0855,0.0986,0.0997,0.1134,0.116,0.1232,0.1351,0.1251,0.1342,0.1111,0.1033,0.0811,0.0618,0.0664,0.0395,0.0348,0.0333,0.0326,0.0103,-0.002,0.0421,0.0421,0.0421,0.0421,0,0.0738,0.0772,0.0889,0.0985,0.1029,0.1127,0.1269,0.1366,0.1415,0.158,0.1609,0.1587,0.1497,0.1244,0.1021,0.0777,0.0435,0.0477,0.048,0.0433,0.0055,-0.0059,-0.0242,-0.0341,0.0313,0.0312,0.0311,0,0.0788,0.0854,0.099,0.1076,0.1131,0.1271,0.1377,0.1454,0.1569,0.175,0.1849,0.1829,0.1852,0.1499,0.1064,0.0687,0.0448,0.0401,0.0285,0.0063,-0.01,-0.0199,-0.0275,0.0266,0.0265,0.0264,0.0263,0,0.0887,0.0932,0.1027,0.1193,0.1324,0.1479,0.1638,0.176,0.1893,0.2061,0.2268,0.2316,0.199,0.1614,0.1069,0.0785,0.0235,0.0368,0.014,-0.0132,-0.0248,-0.0374,0.0246,0.0255,0.0255,0.0256,0.0256,0.0257,0.0962,0.1046,0.1164,0.1325,0.1478,0.1674,0.1827,0.2021,0.2261,0.2542,0.2561,0.2667,0.2097,0.1363,0.0952,0.0171,0.0169,-0.0093,-0.0206,-0.0278,-0.04,0.0208,0.0154,0.0154,0.0154,0.0155,0.0155,0,0.1048,0.1141,0.1292,0.1487,0.1661,0.1728,0.1992,0.2171,0.2491,0.2733,0.2928,0.2677,0.1983,0.1257,0.0208,-0.0325,-0.0511,-0.0597,-0.0749,-0.0795,-0.0249,-0.028,-0.0432,-0.0432,-0.0431,-0.0431,-0.0431,-0.0431,0.1102,0.1247,0.1317,0.16,0.1748,0.1994,0.2156,0.2454,0.2662,0.2977,0.3024,0.3007,0.2428,0.0641,-0.0577,-0.085,-0.1172,-0.1271,-0.1416,-0.1068,-0.103,-0.0994,-0.1053,-0.1365,-0.1366,-0.1918,-0.1923,-0.1928]}],[{"header":{"parameterUnit":"m.s-1","parameterCategory":2,"la1":30.2991,"la2":30.254,"lo1":-89.0895,"lo2":-89.0444,"dy":0.0017,"dx":0.0017,"nx":28,"ny":28,"refTime":"2024-05-24T21:00:00:Z","depth":"2","parameterNumber":2,"parameterNumberName":"U-component_of_CURRENTS"},"data":[0,0,0,0,0,0,0,0,0,0,0,0,0,0,0,0,0,0,0,0,0,0,0,0,0,0,0,0,0,0,0,0,0,0,0,0,0,0,0,0,0,0,0,0,0,0,0,0,0,0,0,0,0,0,0,0,0,0,0.3223,0.3223,0,0.327,0.3271,0.3271,0.3268,0.3267,0.3266,0.3266,0.3302,0.3303,0.3305,0,0,0,0,0,0,0,0,0,0,0,0,0,0.3163,0.3164,0.3223,0.3223,0.3224,0.327,0.3271,0.3271,0.3268,0.3267,0.3266,0.3265,0.3301,0.3303,0.3305,0,0,0,0,0,0,0,0,0,0,0,0,0,0.3197,0.3165,0.3222,0.3228,0.3229,0.327,0.3271,0.3271,0.3268,0.3267,0.3266,0.3265,0.3301,0.3303,0.3305,0.3339,0,0,0.3312,0.3313,0,0,0,0,0,0,0,0,0.3195,0.3199,0.3227,0.3228,0.3229,0.3263,0.3263,0.3294,0.3268,0.3253,0.3266,0.3265,0.3289,0.3292,0.3302,0.3341,0.3342,0.3312,0.3314,0.3315,0.3316,0,0,0,0,0,0,0,0.3193,0.3197,0.3241,0.3228,0.3229,0.324,0.3244,0.3269,0.3275,0.3254,0.3254,0.3261,0.3289,0.33,0.3303,0.3343,0.3312,0.3314,0.3316,0.3317,0.3533,0.3537,0,0,0,0,0,0,0.3188,0.3195,0.3239,0.3242,0.321,0.3242,0.3246,0.3252,0.3275,0.3278,0.3261,0.326,0.3296,0.33,0.3304,0.3428,0.3315,0.3317,0.3318,0.3529,0.3534,0.3539,0,0,0,0,0,0,0.3186,0.3191,0.3237,0.322,0.3227,0.3244,0.3251,0.3254,0.328,0.3281,0.3283,0.3286,0.3296,0.3301,0.3351,0.3426,0.3318,0.332,0.3524,0.353,0.3536,0.3623,0,0,0,0,0,0,0.3184,0.319,0.32,0.322,0.3228,0.3279,0.3253,0.3255,0.3284,0.3284,0.3303,0.3304,0.3295,0.3347,0.3353,0.3427,0.3322,0.3518,0.3527,0.3534,0.3615,0.3632,0.3646,0,0,0,0,0,0.3182,0.3197,0.32,0.3206,0.3238,0.3281,0.3287,0.3295,0.3287,0.3312,0.3326,0.3304,0.3404,0.3352,0.3357,0.3434,0.3514,0.3524,0.3534,0.3607,0.3628,0.3646,0,0,0,0,0,0,0.3175,0.3199,0.3202,0.3223,0.3259,0.3281,0.3303,0.3311,0.3342,0.3346,0.3338,0.3342,0.3421,0.3422,0.3364,0.3529,0.3466,0.3477,0.352,0.354,0.3555,0.3564,0.3324,0,0,0,0,0,0.3179,0.3197,0.3227,0.3247,0.3267,0.3291,0.331,0.3325,0.3351,0.3364,0.3379,0.3415,0.3467,0.3494,0.353,0.3605,0.3618,0.3671,0.3687,0.37,0.3717,0.3794,0.3817,0.3571,0.3571,0.357,0,0,0.3182,0.3198,0.3208,0.3248,0.3273,0.3323,0.3301,0.3347,0.3406,0.3365,0.3444,0.3463,0.35,0.3587,0.3626,0.3595,0.3782,0.3712,0.3722,0.3733,0.3807,0.383,0.3851,0.3577,0.3576,0.3575,0,0,0.3208,0.3215,0.3247,0.3284,0.3334,0.3356,0.3376,0.3421,0.3459,0.3528,0.3534,0.3595,0.3655,0.3709,0.3741,0.3872,0.3858,0.3899,0.3986,0.4061,0.4081,0.4098,0.4151,0.4173,0.3911,0.3911,0.3911,0,0.3214,0.3251,0.3266,0.3317,0.3353,0.3377,0.3435,0.3488,0.3548,0.3597,0.3567,0.3702,0.3721,0.3854,0.3903,0.3907,0.3936,0.3899,0.4078,0.4096,0.4112,0.4162,0.4184,0.3916,0.3916,0.3915,0.3915,0,0.3266,0.3306,0.3332,0.34,0.3449,0.35,0.3572,0.3635,0.3669,0.3716,0.384,0.387,0.3952,0.3984,0.3978,0.4133,0.4112,0.4078,0.4016,0.4141,0.4187,0.4208,0.3924,0.3922,0.392,0.3919,0,0,0.3255,0.3348,0.336,0.3405,0.3496,0.3539,0.3656,0.3762,0.384,0.3911,0.402,0.412,0.4135,0.4176,0.4197,0.4262,0.4398,0.4228,0.423,0.4257,0.456,0.4435,0.4446,0.4391,0.4395,0.4399,0.4545,0,0.3294,0.3383,0.3431,0.3533,0.3586,0.3658,0.3758,0.3865,0.3944,0.4056,0.4138,0.424,0.4216,0.4262,0.4335,0.439,0.446,0.4361,0.4456,0.4459,0.4313,0.4469,0.4124,0.4215,0.4566,0.4569,0.4572,0,0.3333,0.3386,0.348,0.3596,0.3628,0.3699,0.3849,0.3947,0.4117,0.4185,0.4308,0.4361,0.4518,0.4447,0.4621,0.456,0.458,0.4596,0.4601,0.4468,0.4375,0.415,0.4241,0.4608,0.4605,0.4602,0.46,0,0.3305,0.3425,0.3491,0.3531,0.3664,0.3738,0.3823,0.3985,0.4098,0.4281,0.4375,0.4529,0.4634,0.4699,0.4755,0.4706,0.4904,0.4833,0.4739,0.4729,0.4447,0.4404,0.4942,0.4942,0.4942,0.4941,0.4941,0,0.3316,0.3372,0.3482,0.3519,0.3622,0.3728,0.3866,0.3978,0.4167,0.4294,0.4444,0.4563,0.4703,0.4823,0.483,0.4873,0.4977,0.4794,0.4777,0.4468,0.4428,0.4765,0.4742,0.4947,0.4946,0.4945,0.4944,0,0.3279,0.334,0.3421,0.3557,0.3609,0.3684,0.3891,0.3984,0.4176,0.4354,0.4427,0.4659,0.4798,0.4905,0.5022,0.4972,0.5006,0.4978,0.4601,0.4536,0.476,0.4741,0.4907,0.4904,0.4902,0.49,0.4898,0,0.3272,0.3297,0.3435,0.3477,0.354,0.3673,0.3761,0.3966,0.4063,0.4375,0.4439,0.4678,0.477,0.4934,0.4902,0.4925,0.4988,0.4584,0.4418,0.4799,0.4766,0.4751,0.4735,0.4087,0.4079,0.4072,0.4067,0,0.3241,0.3276,0.3344,0.3431,0.3511,0.3611,0.3748,0.3831,0.4052,0.4211,0.4379,0.4495,0.4669,0.4544,0.4605,0.455,0.4553,0.4446,0.4985,0.4137,0.4034,0.3998,0.4009,0.4007,0.4013,0.4017,0.4021,0.4023,0.3224,0.3239,0.3307,0.3379,0.3445,0.3495,0.3538,0.3655,0.3782,0.3919,0.4131,0.4179,0.4249,0.4161,0.4045,0.3972,0.4261,0.4054,0.4072,0.4097,0.3964,0.3861,0.3777,0.3781,0.3785,0.3789,0.3792,0,0.317,0.3194,0.3253,0.3318,0.3304,0.34,0.3475,0.3456,0.3486,0.3622,0.3709,0.3481,0.3445,0.352,0.3332,0.3327,0.3265,0.3175,0.3064,0.3129,0.3185,0.3,0.2561,0.2556,0.2552,0.2548,0,0,0.3137,0.3125,0.3132,0.3099,0.317,0.3108,0.31,0.3084,0.3112,0.3046,0.304,0.3285,0.3448,0.2963,0.2903,0.2701,0.288,0.2594,0.3598,0.3536,0.3585,0.3727,0.3521,0,0,0,0,0]},{"header":{"parameterUnit":"m.s-1","parameterCategory":2,"la1":30.2991,"la2":30.254,"lo1":-89.0895,"lo2":-89.0444,"dy":0.0017,"dx":0.0017,"nx":28,"ny":28,"refTime":"2024-05-24T21:00:00:Z","depth":"2","parameterNumber":3,"parameterNumberName":"V-component_of_CURRENTS"},"data":[0,0,0,0,0,0,0,0,0,0,0,0,0,0,0,0,0,0,0,0,0,0,0,0,0,0,0,0,0,0,0,0,0,0,0,0,0,0,0,0,0,0,0,0,0,0,0,0,0,0,0,0,0,0,0,0,0,0,-0.0003,-0.0004,0,-0.0059,-0.006,-0.0061,-0.0103,-0.0103,-0.0103,-0.0104,-0.0185,-0.0187,-0.0189,0,0,0,0,0,0,0,0,0,0,0,0,0,0.0027,0.0027,-0.0003,-0.0004,-0.0004,-0.0059,-0.006,-0.0061,-0.0103,-0.0103,-0.0104,-0.0104,-0.0185,-0.0187,-0.0189,0,0,0,0,0,0,0,0,0,0,0,0,0,-0.0004,0.0027,-0.0003,-0.0031,-0.0034,-0.0059,-0.006,-0.0061,-0.0103,-0.0103,-0.0104,-0.0104,-0.0184,-0.0187,-0.019,-0.02,0,0,-0.0199,-0.02,0,0,0,0,0,0,0,0,-0.0002,-0.0005,-0.0026,-0.0029,-0.0032,-0.0073,-0.0079,-0.0108,-0.0103,-0.0078,-0.0104,-0.0104,-0.0149,-0.0155,-0.0166,-0.0204,-0.0208,-0.0199,-0.0201,-0.0202,-0.0203,0,0,0,0,0,0,0,-0.0,-0.0004,-0.0027,-0.0027,-0.003,-0.0054,-0.0059,-0.0085,-0.0112,-0.008,-0.0083,-0.0087,-0.0151,-0.0163,-0.0169,-0.0209,-0.0199,-0.0201,-0.0203,-0.0204,-0.0248,-0.0248,0,0,0,0,0,0,0.0012,-0.0001,-0.0025,-0.0028,-0.0016,-0.0054,-0.0059,-0.0061,-0.0112,-0.0119,-0.0087,-0.0089,-0.0158,-0.0165,-0.0172,-0.016,-0.0202,-0.0205,-0.0206,-0.0249,-0.0248,-0.0248,0,0,0,0,0,0,0.0013,0.0011,-0.0023,-0.0015,-0.0021,-0.0054,-0.0055,-0.0062,-0.0069,-0.0116,-0.0124,-0.0086,-0.0159,-0.0167,-0.0186,-0.0165,-0.0206,-0.0209,-0.025,-0.0249,-0.0248,-0.0155,0,0,0,0,0,0,0.0014,0.0012,0.0016,-0.0014,-0.0021,-0.0024,-0.0055,-0.0062,-0.007,-0.0073,-0.0118,-0.0127,-0.016,-0.0181,-0.0189,-0.017,-0.0211,-0.025,-0.0249,-0.0248,-0.0159,-0.0151,-0.0145,0,0,0,0,0,0.0016,0.0029,0.0017,0.0014,-0.0014,-0.0023,-0.0028,-0.0055,-0.0069,-0.0064,-0.0097,-0.0125,-0.018,-0.0183,-0.0192,-0.0173,-0.0251,-0.025,-0.0248,-0.0162,-0.0153,-0.0145,0,0,0,0,0,0,0.0044,0.0025,0.0011,0.0017,0.0003,-0.0029,-0.0028,-0.0046,-0.0068,-0.0072,-0.0119,-0.0129,-0.0139,-0.017,-0.0172,-0.0184,-0.022,-0.022,-0.0151,-0.0143,-0.0136,-0.0097,-0.0213,0,0,0,0,0,0.0053,0.0058,0.0034,0.0039,0.0036,0.0005,-0.0002,-0.0017,-0.0042,-0.0052,-0.0084,-0.0118,-0.0142,-0.0152,-0.0182,-0.0186,-0.0216,-0.0181,-0.0173,-0.0167,-0.0142,-0.0175,-0.0168,-0.0243,-0.0243,-0.0243,0,0,0.0066,0.0055,0.0057,0.0046,0.0031,0.0043,-0.0,-0.0002,0.0013,-0.0057,-0.0051,-0.0096,-0.0139,-0.0145,-0.0151,-0.0165,-0.0164,-0.0165,-0.0159,-0.0138,-0.0173,-0.0165,-0.0158,-0.0243,-0.0243,-0.0243,0,0,0.01,0.0084,0.0103,0.01,0.0089,0.0073,0.0078,0.0052,0.0046,0.004,-0.0005,-0.003,-0.0071,-0.0091,-0.0107,-0.0078,-0.0128,-0.0094,-0.0021,-0.0052,-0.0046,-0.0041,-0.0076,-0.0074,-0.0086,-0.0085,-0.0085,0,0.0116,0.0139,0.0107,0.0129,0.0141,0.0095,0.0128,0.0115,0.0087,0.0092,0.0055,0.0007,-0.0039,-0.003,-0.0025,-0.0058,-0.0089,-0.0048,-0.0041,-0.0037,-0.0033,-0.007,-0.007,-0.0081,-0.0081,-0.0082,-0.0082,0,0.0169,0.019,0.0203,0.0218,0.0223,0.0244,0.0228,0.0231,0.0208,0.0189,0.0183,0.0118,0.0096,0.0069,0.003,0.0041,0.0006,-0.0032,-0.0058,-0.0019,-0.0062,-0.0063,-0.0074,-0.0076,-0.0077,-0.0078,0,0,0.0207,0.0237,0.0244,0.0278,0.0278,0.0296,0.0321,0.0337,0.037,0.0317,0.0356,0.0288,0.0247,0.0226,0.0169,0.0137,0.0122,0.0073,0.0069,0.0049,0.0049,0.0,-0.0007,0.0082,0.0083,0.0083,0.0006,0,0.0264,0.0338,0.0332,0.0406,0.0447,0.0427,0.0464,0.0468,0.0454,0.0474,0.0408,0.0412,0.031,0.0309,0.0258,0.0166,0.0124,0.0146,0.0007,0.0003,-0.0037,-0.0007,0.0031,-0.0036,0.0005,0.0004,0.0004,0,0.0328,0.0373,0.0458,0.0525,0.0542,0.0579,0.064,0.0666,0.0668,0.0658,0.0634,0.0579,0.054,0.0445,0.0305,0.0323,0.0201,0.0111,0.0105,0.0033,-0.0048,-0.0068,-0.004,0.0001,0.0002,0.0002,0.0002,0,0.0394,0.0466,0.0544,0.0566,0.0624,0.0671,0.0707,0.0727,0.0781,0.0788,0.0826,0.0737,0.0729,0.0567,0.037,0.0343,0.0206,0.0142,-0.002,-0.0026,-0.0031,-0.0038,0.0042,0.0042,0.0043,0.0043,0.0043,0,0.0466,0.053,0.0589,0.0636,0.0749,0.0758,0.0871,0.0889,0.0943,0.1031,0.0936,0.0983,0.076,0.065,0.0436,0.0214,0.0252,0.0009,-0.0041,-0.0,-0.0003,-0.0001,-0.0005,0.004,0.0041,0.0041,0.0042,0,0.0523,0.0557,0.0656,0.0742,0.0785,0.0868,0.0997,0.1074,0.111,0.1228,0.1249,0.1184,0.1036,0.0788,0.0535,0.0324,0.01,0.0005,0.0065,0.0022,-0.013,-0.0129,-0.0174,-0.0176,-0.0178,-0.018,-0.0181,0,0.056,0.0614,0.0741,0.0819,0.0867,0.0993,0.1086,0.1155,0.1249,0.1355,0.1426,0.1338,0.1283,0.0888,0.0511,0.0143,0.0087,-0.0075,-0.0128,-0.0104,-0.0149,-0.0144,-0.014,-0.0104,-0.0105,-0.0105,-0.0106,0,0.0629,0.0668,0.0756,0.0913,0.1029,0.1167,0.1312,0.1419,0.1517,0.163,0.1736,0.1708,0.1339,0.0981,0.047,0.0213,-0.0016,-0.0098,-0.0067,-0.006,-0.0046,-0.0088,-0.0085,-0.011,-0.011,-0.0109,-0.0109,-0.0109,0.0687,0.0759,0.0873,0.1022,0.1155,0.1331,0.1473,0.1629,0.1816,0.1978,0.1931,0.1895,0.1481,0.0832,0.0393,-0.0061,-0.0047,-0.0214,-0.0209,-0.0205,-0.0187,-0.0178,-0.0263,-0.0263,-0.0264,-0.0264,-0.0264,0,0.076,0.0844,0.0979,0.1164,0.1313,0.1379,0.1612,0.1758,0.1998,0.2098,0.2165,0.178,0.1372,0.0895,0.023,-0.0181,-0.0206,-0.0319,-0.0248,-0.0241,-0.0235,-0.0217,-0.0303,-0.0304,-0.0305,-0.0306,0,0,0.0805,0.0935,0.0999,0.1252,0.1397,0.161,0.1756,0.1978,0.2107,0.2213,0.2187,0.2071,0.1519,0.1027,0.0473,0.0094,0.0016,0.0007,0.0083,0.024,0.0251,-0.013,-0.0089,0,0,0,0,0]}],[{"header":{"parameterUnit":"m.s-1","parameterCategory":2,"la1":30.2991,"la2":30.254,"lo1":-89.0895,"lo2":-89.0444,"dy":0.0017,"dx":0.0017,"nx":28,"ny":28,"refTime":"2024-05-24T21:00:00:Z","depth":"4","parameterNumber":2,"parameterNumberName":"U-component_of_CURRENTS"},"data":[0,0,0,0,0,0,0,0,0,0,0,0,0,0,0,0,0,0,0,0,0,0,0,0,0,0,0,0,0,0,0,0,0,0,0,0,0,0,0,0,0,0,0,0,0,0,0,0,0,0,0,0,0,0,0,0,0,0,0.2113,0.2114,0,0.2185,0.2186,0.2186,0.2252,0.2253,0.2254,0.2255,0.2342,0.2343,0.2345,0,0,0,0,0,0,0,0,0,0,0,0,0,0.2016,0.2018,0.2112,0.2114,0.2115,0.2185,0.2186,0.2186,0.2252,0.2253,0.2255,0.2256,0.2342,0.2343,0.2345,0,0,0,0,0,0,0,0,0,0,0,0,0,0.2067,0.2018,0.2112,0.2159,0.2164,0.2185,0.2186,0.2187,0.2252,0.2253,0.2255,0.2257,0.2341,0.2343,0.2345,0.2324,0,0,0.2351,0.2352,0,0,0,0,0,0,0,0,0.2064,0.207,0.2151,0.2156,0.2161,0.2214,0.2184,0.2234,0.2251,0.2215,0.2255,0.2257,0.2302,0.2307,0.2312,0.2328,0.2331,0.2351,0.2352,0.2353,0.2354,0,0,0,0,0,0,0,0.2061,0.2067,0.2138,0.2152,0.2158,0.2171,0.218,0.2193,0.2246,0.2218,0.2224,0.2237,0.2305,0.231,0.2314,0.2333,0.2351,0.2353,0.2354,0.2355,0.2459,0.2461,0,0,0,0,0,0,0.2058,0.2064,0.2136,0.214,0.212,0.2172,0.2182,0.2193,0.2245,0.2256,0.2235,0.224,0.2306,0.2312,0.2318,0.2408,0.2353,0.2355,0.2356,0.2457,0.2459,0.2461,0,0,0,0,0,0,0.2055,0.2063,0.2133,0.2107,0.2117,0.2172,0.2184,0.2193,0.2245,0.2259,0.227,0.2284,0.2307,0.2315,0.237,0.2408,0.2356,0.2357,0.2455,0.2458,0.246,0.2516,0,0,0,0,0,0,0.2052,0.2062,0.2089,0.2106,0.2119,0.2167,0.2183,0.2194,0.225,0.2257,0.2303,0.231,0.2309,0.2367,0.2372,0.2409,0.2359,0.2453,0.2457,0.2459,0.2512,0.252,0.2527,0,0,0,0,0,0.2048,0.207,0.209,0.21,0.2148,0.2168,0.2175,0.2217,0.2251,0.2271,0.2312,0.2311,0.239,0.237,0.2375,0.2414,0.2452,0.2456,0.2459,0.2509,0.2519,0.2527,0,0,0,0,0,0,0.2046,0.208,0.2102,0.2136,0.2162,0.2181,0.2212,0.2241,0.2288,0.2311,0.2329,0.2338,0.2403,0.2399,0.2377,0.2454,0.2422,0.2427,0.2458,0.2467,0.2474,0.2502,0.236,0,0,0,0,0,0.2057,0.2084,0.2112,0.2143,0.2159,0.2195,0.222,0.2246,0.228,0.2306,0.2338,0.2375,0.2412,0.2434,0.2458,0.2495,0.252,0.2525,0.2532,0.2538,0.2566,0.2641,0.2658,0.2473,0.2473,0.2473,0,0,0.2067,0.2089,0.2109,0.2146,0.2172,0.2196,0.2215,0.2257,0.2291,0.2305,0.2373,0.2406,0.243,0.2478,0.2505,0.2485,0.2601,0.2543,0.2548,0.2573,0.2647,0.2665,0.2681,0.2476,0.2475,0.2475,0,0,0.2076,0.2119,0.2138,0.2163,0.2208,0.2226,0.2249,0.2289,0.2326,0.2383,0.2411,0.2472,0.2516,0.2544,0.2562,0.2625,0.2641,0.2634,0.2692,0.2764,0.2781,0.2795,0.2833,0.2851,0.2633,0.2633,0.2633,0,0.2093,0.2115,0.2147,0.2168,0.2199,0.2244,0.227,0.2305,0.2363,0.2411,0.2416,0.2536,0.2548,0.2629,0.2652,0.2644,0.2683,0.2653,0.2775,0.2791,0.2805,0.2841,0.2859,0.2636,0.2636,0.2635,0.2635,0,0.2096,0.2135,0.2149,0.2192,0.2228,0.2259,0.2306,0.2363,0.2421,0.2466,0.2576,0.2605,0.2688,0.2691,0.2693,0.2802,0.2797,0.2779,0.2754,0.2827,0.2859,0.2878,0.2641,0.264,0.2639,0.2638,0,0,0.2076,0.214,0.2151,0.2178,0.2247,0.2269,0.2346,0.2424,0.2499,0.257,0.2673,0.274,0.2795,0.2821,0.2837,0.2891,0.3006,0.2889,0.2891,0.2929,0.3166,0.2956,0.2956,0.3025,0.3029,0.3032,0.3142,0,0.2073,0.2112,0.2152,0.2205,0.223,0.2309,0.2375,0.2463,0.2547,0.2655,0.2736,0.2835,0.2831,0.2891,0.2953,0.3005,0.3063,0.2978,0.3089,0.3092,0.2898,0.2973,0.3045,0.3156,0.316,0.3163,0.3165,0,0.2054,0.2086,0.2138,0.2221,0.2244,0.2298,0.2433,0.2502,0.2663,0.2732,0.2866,0.2941,0.3068,0.3037,0.3189,0.3146,0.3178,0.3195,0.3199,0.3003,0.2917,0.3072,0.3199,0.3196,0.3194,0.3192,0.319,0,0.2,0.2074,0.212,0.2148,0.2251,0.2319,0.24,0.2549,0.2627,0.2815,0.2904,0.3056,0.3157,0.324,0.3303,0.3274,0.3441,0.3393,0.3231,0.3216,0.3348,0.3331,0.3504,0.3504,0.3503,0.3503,0.3503,0,0.1959,0.1996,0.2112,0.2131,0.2216,0.2311,0.2428,0.2532,0.2694,0.2792,0.2963,0.3055,0.3223,0.3335,0.3362,0.3356,0.3499,0.3264,0.3241,0.3363,0.3348,0.336,0.3341,0.3507,0.3506,0.3505,0.3505,0,0.1878,0.1956,0.2006,0.2132,0.2191,0.2259,0.2432,0.2497,0.2682,0.282,0.2895,0.3109,0.3246,0.3366,0.3495,0.3407,0.3426,0.3385,0.3517,0.3496,0.3136,0.312,0.3212,0.3206,0.32,0.3196,0.3192,0,0.1829,0.1852,0.1993,0.2035,0.2101,0.2224,0.2297,0.2478,0.2541,0.2815,0.2854,0.3084,0.32,0.3224,0.3351,0.3395,0.3354,0.3333,0.3225,0.3143,0.3113,0.3105,0.3096,0.3184,0.3182,0.3181,0.318,0,0.1719,0.1793,0.1838,0.1936,0.2019,0.2084,0.2208,0.2246,0.245,0.2648,0.2759,0.2859,0.3005,0.31,0.3165,0.3183,0.3327,0.3277,0.3286,0.3185,0.311,0.3084,0.3081,0.3161,0.3164,0.3166,0.3167,0,0.1645,0.1654,0.1732,0.1804,0.1894,0.1906,0.1996,0.2077,0.218,0.248,0.2514,0.2759,0.2969,0.2992,0.3047,0.3057,0.3004,0.2888,0.2917,0.2939,0.2797,0.266,0.2572,0,0,0,0,0,0.1554,0.1549,0.1588,0.1641,0.1714,0.1773,0.1905,0.1994,0.2217,0.2227,0.2364,0.2489,0.2608,0.2736,0.2693,0.2913,0.3001,0.2847,0.2877,0.3059,0.3081,0.2938,0,0,0,0,0,0,0.1497,0.1525,0.1528,0.1477,0.1497,0.155,0.1632,0.1779,0.1798,0.2053,0.2137,0.2335,0.249,0.2618,0.265,0.2684,0.2647,0.3,0.2993,0.3047,0.3067,0.3084,0.2945,0,0,0,0,0]},{"header":{"parameterUnit":"m.s-1","parameterCategory":2,"la1":30.2991,"la2":30.254,"lo1":-89.0895,"lo2":-89.0444,"dy":0.0017,"dx":0.0017,"nx":28,"ny":28,"refTime":"2024-05-24T21:00:00:Z","depth":"4","parameterNumber":3,"parameterNumberName":"V-component_of_CURRENTS"},"data":[0,0,0,0,0,0,0,0,0,0,0,0,0,0,0,0,0,0,0,0,0,0,0,0,0,0,0,0,0,0,0,0,0,0,0,0,0,0,0,0,0,0,0,0,0,0,0,0,0,0,0,0,0,0,0,0,0,0,-0.0017,-0.0018,0,-0.0054,-0.0055,-0.0055,-0.0091,-0.0091,-0.0092,-0.0092,-0.0153,-0.0154,-0.0155,0,0,0,0,0,0,0,0,0,0,0,0,0,-0.0001,-0.0001,-0.0017,-0.0018,-0.0018,-0.0054,-0.0055,-0.0056,-0.0091,-0.0091,-0.0092,-0.0092,-0.0152,-0.0154,-0.0155,0,0,0,0,0,0,0,0,0,0,0,0,0,-0.0021,-0.0001,-0.0017,-0.0039,-0.0042,-0.0054,-0.0055,-0.0056,-0.0091,-0.0091,-0.0092,-0.0092,-0.0152,-0.0154,-0.0155,-0.0156,0,0,-0.0161,-0.0162,0,0,0,0,0,0,0,0,-0.002,-0.0022,-0.0036,-0.0038,-0.0041,-0.0068,-0.0071,-0.009,-0.0091,-0.0073,-0.0092,-0.0093,-0.0125,-0.013,-0.0136,-0.0159,-0.0162,-0.0161,-0.0163,-0.0163,-0.0164,0,0,0,0,0,0,0,-0.0018,-0.002,-0.0033,-0.0036,-0.0039,-0.0056,-0.0059,-0.0075,-0.0097,-0.0075,-0.0077,-0.008,-0.0127,-0.0134,-0.0138,-0.0162,-0.0161,-0.0163,-0.0164,-0.0165,-0.0182,-0.0182,0,0,0,0,0,0,-0.001,-0.0019,-0.0032,-0.0034,-0.003,-0.0055,-0.0059,-0.0059,-0.0096,-0.0102,-0.0079,-0.0081,-0.0131,-0.0136,-0.014,-0.0126,-0.0163,-0.0165,-0.0166,-0.0183,-0.0182,-0.0182,0,0,0,0,0,0,-0.0009,-0.0011,-0.003,-0.0027,-0.003,-0.0055,-0.0055,-0.006,-0.0066,-0.0099,-0.0106,-0.0081,-0.0131,-0.0138,-0.0149,-0.0129,-0.0166,-0.0168,-0.0184,-0.0183,-0.0182,-0.0108,0,0,0,0,0,0,-0.0009,-0.001,-0.0007,-0.0026,-0.003,-0.0028,-0.0054,-0.006,-0.0067,-0.007,-0.0103,-0.0109,-0.0132,-0.0146,-0.0151,-0.0132,-0.0169,-0.0185,-0.0183,-0.0182,-0.0111,-0.0104,-0.0098,0,0,0,0,0,-0.0008,0.0003,-0.0006,-0.0008,-0.0025,-0.0028,-0.0031,-0.0051,-0.0066,-0.0061,-0.0086,-0.0108,-0.0142,-0.0147,-0.0153,-0.0134,-0.0185,-0.0184,-0.0182,-0.0114,-0.0105,-0.0099,0,0,0,0,0,0,0.0012,0.0,-0.0011,-0.0004,-0.0012,-0.0033,-0.0031,-0.0046,-0.0062,-0.0066,-0.0101,-0.0108,-0.0112,-0.0134,-0.0139,-0.0136,-0.0166,-0.0166,-0.0112,-0.0105,-0.0099,-0.0086,-0.0171,0,0,0,0,0,0.0019,0.0023,0.0009,0.0014,0.0012,-0.0009,-0.0014,-0.0026,-0.0042,-0.005,-0.0073,-0.0096,-0.011,-0.0116,-0.0136,-0.0132,-0.0171,-0.0124,-0.0118,-0.0112,-0.0106,-0.0153,-0.015,-0.0177,-0.0177,-0.0177,0,0,0.0028,0.0022,0.0024,0.0019,0.0009,0.0022,-0.0013,-0.0013,0.0,-0.0054,-0.0047,-0.0078,-0.0106,-0.0104,-0.0107,-0.0118,-0.0125,-0.011,-0.0105,-0.0102,-0.0151,-0.0148,-0.0146,-0.0176,-0.0176,-0.0176,0,0,0.0056,0.0044,0.0061,0.0062,0.0055,0.0045,0.0048,0.0031,0.0026,0.0028,-0.0008,-0.0028,-0.0045,-0.0064,-0.0073,-0.0045,-0.0094,-0.0048,0.0,-0.0045,-0.0043,-0.0042,-0.0087,-0.0091,-0.0039,-0.0039,-0.0039,0,0.0068,0.0088,0.0066,0.0086,0.0095,0.0061,0.0087,0.008,0.0062,0.006,0.0041,0.0005,-0.0024,-0.0023,-0.0012,-0.003,-0.0065,-0.0024,-0.0036,-0.0036,-0.0037,-0.0084,-0.0089,-0.0035,-0.0036,-0.0036,-0.0036,0,0.0113,0.0131,0.0142,0.0158,0.0162,0.0179,0.017,0.0171,0.0156,0.014,0.0131,0.0088,0.0066,0.0056,0.0033,0.0025,-0.0003,-0.0028,-0.0054,-0.0029,-0.0081,-0.0087,-0.003,-0.0031,-0.0032,-0.0033,0,0,0.0137,0.0169,0.0175,0.0198,0.0204,0.0215,0.0238,0.0245,0.0258,0.0229,0.0241,0.0205,0.0166,0.0152,0.0113,0.0078,0.0042,0.0034,0.003,-0.0009,-0.0059,-0.0067,-0.0076,0.0014,0.0014,0.0013,-0.0094,0,0.0182,0.024,0.0241,0.0297,0.0327,0.0313,0.034,0.0338,0.0323,0.0324,0.0273,0.0266,0.0209,0.0203,0.0156,0.007,0.0028,0.0073,-0.008,-0.0084,-0.0093,-0.0082,0.0011,-0.0099,-0.01,-0.0102,-0.0102,0,0.0229,0.0263,0.0329,0.0375,0.0387,0.0417,0.0445,0.0465,0.045,0.0437,0.0406,0.0359,0.031,0.026,0.012,0.0151,0.0056,-0.0017,-0.0023,-0.0061,-0.0104,-0.0131,-0.0115,-0.0114,-0.0113,-0.0112,-0.0112,0,0.0263,0.0324,0.0381,0.0398,0.0443,0.0473,0.0499,0.0501,0.0529,0.051,0.0519,0.0435,0.0409,0.0278,0.0124,0.0122,-0.0038,-0.0065,-0.0165,-0.0167,-0.0161,-0.0162,-0.0165,-0.0165,-0.0164,-0.0164,-0.0164,0,0.0308,0.0354,0.0407,0.044,0.0517,0.0527,0.0597,0.0603,0.0623,0.0663,0.0584,0.0586,0.0413,0.0302,0.0147,-0.0028,-0.0028,-0.0155,-0.0193,-0.0128,-0.0123,-0.0167,-0.0165,-0.0168,-0.0167,-0.0166,-0.0166,0,0.0333,0.0368,0.0439,0.0506,0.0538,0.0593,0.0682,0.0726,0.0732,0.0784,0.0788,0.0699,0.0551,0.0362,0.0145,0.0017,-0.016,-0.0224,-0.0137,-0.0169,-0.0266,-0.0259,-0.0341,-0.0342,-0.0343,-0.0344,-0.0345,0,0.0351,0.039,0.049,0.0548,0.0587,0.0676,0.0743,0.0782,0.0834,0.0853,0.0881,0.0767,0.068,0.0377,0.0155,-0.0144,-0.0188,-0.0282,-0.0276,-0.0254,-0.0283,-0.0275,-0.0268,-0.0346,-0.0347,-0.0347,-0.0347,0,0.0381,0.0416,0.0479,0.06,0.0687,0.0788,0.0887,0.0935,0.0983,0.0987,0.0971,0.082,0.065,0.0395,0.016,-0.0057,-0.0222,-0.0293,-0.0292,-0.0287,-0.0261,-0.0287,-0.0279,-0.035,-0.035,-0.035,-0.0349,0,0.0406,0.0457,0.0544,0.0652,0.0764,0.0876,0.0924,0.0995,0.1045,0.1064,0.1051,0.0868,0.076,0.0439,0.022,0.0007,-0.005,-0.0118,-0.0128,-0.0127,-0.0039,0.0026,-0.0002,0,0,0,0,0,0.0432,0.0498,0.0593,0.0721,0.0828,0.0899,0.1011,0.1047,0.1095,0.1101,0.1085,0.093,0.0623,0.0481,0.0269,0.0174,-0.0109,-0.0086,-0.0197,-0.0369,-0.0365,-0.03,0,0,0,0,0,0,0.0456,0.0545,0.0594,0.0751,0.0846,0.0974,0.1049,0.1082,0.1088,0.1099,0.0939,0.0872,0.0565,0.0749,0.0265,0.0198,0.0097,-0.023,-0.0234,-0.0371,-0.0368,-0.0365,-0.0297,0,0,0,0,0]}]]